Home   Weather   Brussels   Past weeks
Flag for Belgium

Past Weather in Brussels, Belgium — Yesterday and Last 2 Weeks

Now
46 °F

Sunny.


Feels Like: 41 °F
Forecast: 44 / 33 °F
Wind: 12 mph from Northeast

Location: Brussels National Airport

Current Time: Mar 28, 2020 at 10:46:01 am

Latest Report: Mar 28, 2020 at 9:50 am


Visibility: 10 mi

Pressure: 30.18 "Hg

Humidity: 66%

Dew Point: 36 °F

Location of BrusselsLocation

Past Weather in Brussels — Graph

°F

Brussels Temperature Yesterday

Maximum temperature yesterday: 57 °F (at 3:20 pm)
Minimum temperature yesterday: 32 °F (at 6:50 am)
Average temperature yesterday: 44 °F

High & Low Weather Summary for the Past Weeks

 TemperatureHumidityPressure
High61 °F (Mar 18, 1:20 pm)100% (Mar 16, 8:20 am)30.45 "Hg (Mar 16, 8:20 am)
Low28 °F (Mar 24, 6:50 am)18% (Mar 24, 4:20 pm)29.86 "Hg (Mar 15, 2:50 pm)
Average45 °F64%30.23 "Hg
* Reported Mar 13 9:20 am — Mar 28 9:20 am, Brussels. Weather by CustomWeather, © 2020

Note: Actual official high and low records may vary slightly from our data, if they occured in-between our weather recording intervals... More about our weather records

Brussels Weather History for the Previous 24 Hours

Scroll right to see more
 ConditionsComfort  
Time TempWeatherWind HumidityBarometerVisibility
9:20 am
Sat, Mar 28
45 °FSunny.10 mph71%30.18 "Hg10 mi
8:50 am43 °FSunny.7 mph76%30.18 "Hg10 mi
8:20 am41 °FSunny.6 mph81%30.15 "Hg10 mi
7:50 am39 °FClear.5 mph87%30.15 "Hg5 mi
7:20 am37 °FClear.5 mph87%30.15 "Hg5 mi
6:50 am37 °FClear.5 mph81%30.15 "Hg5 mi
6:20 am37 °FClear.5 mph87%30.12 "Hg5 mi
5:50 am37 °FClear.5 mph87%30.12 "Hg10 mi
5:20 am39 °FClear.3 mph81%30.12 "Hg10 mi
4:50 am39 °FClear.3 mph81%30.12 "Hg10 mi
4:20 am39 °FClear.5 mph81%30.12 "Hg10 mi
3:50 am39 °FClear.3 mph81%30.12 "Hg10 mi
3:20 am39 °FClear.5 mph81%30.12 "Hg10 mi
2:50 am41 °FClear.3 mph76%30.12 "Hg10 mi
2:20 am43 °FClear.2 mph71%30.12 "Hg10 mi
1:50 am41 °FClear.3 mph76%30.12 "Hg10 mi
1:20 am43 °FClear.3 mph71%30.12 "Hg10 mi
12:50 am41 °FClear.5 mph76%30.12 "Hg10 mi
12:20 am43 °FClear.5 mph71%30.09 "Hg10 mi
11:50 pm
Fri, Mar 27
45 °FClear.3 mph66%30.12 "Hg10 mi
11:20 pm45 °FClear.5 mph66%30.09 "Hg10 mi
10:50 pm46 °FClear.5 mph66%30.09 "Hg10 mi
10:20 pm46 °FClear.3 mph62%30.09 "Hg10 mi
9:50 pm46 °FClear.2 mph62%30.09 "Hg10 mi
9:20 pm48 °FClear.2 mph54%30.09 "Hg10 mi
8:50 pm48 °FClear.3 mph58%30.09 "Hg10 mi
8:20 pm50 °FClear.3 mph50%30.09 "Hg10 mi
7:50 pm48 °FClear.3 mph54%30.09 "Hg10 mi
7:20 pm50 °FClear.5 mph54%30.07 "Hg10 mi
6:50 pm52 °FSunny.5 mph54%30.07 "Hg10 mi
6:20 pm54 °FSunny.7 mph51%30.07 "Hg10 mi
5:50 pm55 °FSunny.8 mph47%30.07 "Hg10 mi
5:20 pm55 °FSunny.8 mph47%30.07 "Hg10 mi
4:50 pm57 °FPassing clouds.9 mph41%30.07 "HgN/A
4:20 pm57 °FPassing clouds.9 mph39%30.07 "HgN/A
3:50 pm57 °FPassing clouds.9 mph39%30.07 "HgN/A
3:20 pm57 °FPassing clouds.9 mph41%30.07 "HgN/A
2:50 pm55 °FSunny.9 mph41%30.07 "Hg10 mi
2:20 pm54 °FSunny.9 mph41%30.07 "Hg10 mi
1:50 pm54 °FPassing clouds.9 mph41%30.09 "HgN/A
1:20 pm52 °FPassing clouds.8 mph47%30.09 "HgN/A
12:50 pm50 °FPassing clouds.8 mph47%30.09 "HgN/A
12:20 pm50 °FSunny.8 mph47%30.09 "Hg10 mi
11:50 am48 °FPassing clouds.6 mph46%30.09 "HgN/A
11:20 am46 °FPassing clouds.6 mph50%30.12 "HgN/A
10:50 am45 °FPassing clouds.7 mph53%30.12 "HgN/A
10:20 am45 °FSunny.7 mph53%30.12 "Hg10 mi
Weather by CustomWeather, © 2020

See weather overview

Advertising